• In Spain
  • List of Countries
  • For 7 days
  • Water Temperature
  • Satellite Maps
  • Weather Map
  • Weather Widgets
  • user-avatar
    Login

    Hourly Weather Duszniki Zdroj

    Today, 21 November, Tuesday

    Time Temperature Precipitation Wind Pressure Humidity
    00:00 -1°C° 0.1 mm 2 mps 712 mmHg 89%
    01:00 -1°C° 0 mm 2 mps 712 mmHg 88%
    02:00 -1°C° 0.1 mm 2 mps 712 mmHg 88%
    03:00 -1°C° 0.1 mm 2 mps 711 mmHg 89%
    04:00 -1°C° 0.1 mm 2 mps 711 mmHg 89%
    05:00 -1°C° 0.2 mm 2 mps 711 mmHg 89%
    06:00 -1°C° 0.2 mm 2 mps 711 mmHg 90%
    07:00 -1°C° 0.2 mm 2 mps 711 mmHg 90%
    08:00 -1°C° 0.3 mm 2 mps 710 mmHg 89%
    09:00 +1°C° 0.3 mm 2 mps 710 mmHg 89%
    10:00 +1°C° 0.3 mm 2 mps 710 mmHg 88%
    11:00 +2°C° 0.3 mm 2 mps 710 mmHg 89%
    12:00 +2°C° 0.3 mm 2 mps 710 mmHg 89%
    13:00 +3°C° 0.3 mm 2 mps 710 mmHg 90%
    14:00 +3°C° 0.2 mm 2 mps 710 mmHg 91%
    15:00 +3°C° 0.2 mm 3 mps 710 mmHg 92%
    16:00 +3°C° 0.2 mm 3 mps 710 mmHg 93%
    17:00 +3°C° 0.2 mm 3 mps 710 mmHg 94%
    18:00 +3°C° 0.2 mm 3 mps 710 mmHg 94%
    19:00 +3°C° 0.2 mm 3 mps 710 mmHg 95%
    20:00 +3°C° 0.4 mm 3 mps 710 mmHg 95%
    21:00 +3°C° 0.4 mm 3 mps 710 mmHg 95%
    22:00 +4°C° 0.4 mm 2 mps 710 mmHg 95%
    23:00 +3°C° 0.3 mm 3 mps 710 mmHg 95%

    Tomorrow, 22 November, Wednesday

    Time Temperature Precipitation Wind Pressure Humidity
    00:00 +4°C° 0.3 mm 3 mps 710 mmHg 94%
    01:00 +4°C° 0.3 mm 3 mps 710 mmHg 94%
    02:00 +4°C° 0 mm 3 mps 710 mmHg 93%
    03:00 +4°C° 0 mm 3 mps 710 mmHg 93%
    04:00 +4°C° 0 mm 4 mps 710 mmHg 92%
    05:00 +4°C° 0 mm 3 mps 710 mmHg 93%
    06:00 +3°C° 0 mm 3 mps 710 mmHg 93%
    07:00 +3°C° 0 mm 3 mps 710 mmHg 93%
    08:00 +3°C° 0 mm 3 mps 711 mmHg 90%
    09:00 +4°C° 0 mm 3 mps 711 mmHg 87%
    10:00 +4°C° 0 mm 4 mps 711 mmHg 84%
    11:00 +5°C° 0 mm 4 mps 711 mmHg 81%
    12:00 +6°C° 0 mm 4 mps 711 mmHg 78%
    13:00 +6°C° 0 mm 5 mps 711 mmHg 74%
    14:00 +5°C° 0 mm 4 mps 711 mmHg 77%
    15:00 +5°C° 0 mm 3 mps 711 mmHg 80%
    16:00 +5°C° 0 mm 2 mps 711 mmHg 83%
    17:00 +4°C° 0 mm 2 mps 711 mmHg 84%
    18:00 +4°C° 0 mm 2 mps 712 mmHg 85%
    19:00 +3°C° 0 mm 2 mps 712 mmHg 86%
    20:00 +3°C° 0 mm 2 mps 712 mmHg 86%
    21:00 +3°C° 0 mm 2 mps 712 mmHg 87%
    22:00 +3°C° 0 mm 2 mps 712 mmHg 87%
    23:00 +2°C° 0 mm 2 mps 712 mmHg 87%

    Day after tomorrow, 23 November, Thursday

    Time Temperature Precipitation Wind Pressure Humidity
    00:00 +2°C° 0 mm 2 mps 712 mmHg 86%
    01:00 +2°C° 0 mm 2 mps 712 mmHg 86%
    02:00 +2°C° 0 mm 2 mps 712 mmHg 85%
    03:00 +2°C° 0 mm 2 mps 712 mmHg 83%
    04:00 +2°C° 0 mm 2 mps 712 mmHg 82%
    05:00 +2°C° 0 mm 2 mps 712 mmHg 80%
    06:00 +2°C° 0 mm 2 mps 712 mmHg 78%
    07:00 +2°C° 0 mm 2 mps 712 mmHg 77%
    08:00 +2°C° 0 mm 3 mps 713 mmHg 72%
    09:00 +4°C° 0 mm 3 mps 713 mmHg 68%
    10:00 +5°C° 0 mm 3 mps 713 mmHg 64%
    11:00 +7°C° 0 mm 3 mps 714 mmHg 64%
    12:00 +8°C° 0 mm 3 mps 714 mmHg 63%
    13:00 +9°C° 0 mm 3 mps 714 mmHg 62%
    14:00 +8°C° 0 mm 3 mps 714 mmHg 66%
    15:00 +7°C° 0 mm 3 mps 714 mmHg 69%
    16:00 +5°C° 0 mm 3 mps 714 mmHg 73%
    17:00 +4°C° 0 mm 3 mps 715 mmHg 74%
    18:00 +4°C° 0 mm 3 mps 715 mmHg 75%
    19:00 +4°C° 0 mm 3 mps 715 mmHg 76%
    20:00 +4°C° 0 mm 3 mps 715 mmHg 77%
    21:00 +3°C° 0 mm 3 mps 716 mmHg 77%
    22:00 +3°C° 0 mm 3 mps 716 mmHg 77%
    23:00 +3°C° 0 mm 3 mps 716 mmHg 78%

    24 November, Friday

    Time Temperature Precipitation Wind Pressure Humidity
    00:00 +3°C° 0 mm 3 mps 716 mmHg 79%
    01:00 +4°C° 0 mm 2 mps 716 mmHg 79%
    02:00 +3°C° 0 mm 2 mps 716 mmHg 79%
    03:00 +3°C° 0 mm 2 mps 716 mmHg 80%
    04:00 +3°C° 0 mm 2 mps 716 mmHg 80%
    05:00 +3°C° 0 mm 2 mps 716 mmHg 80%
    06:00 +3°C° 0 mm 2 mps 717 mmHg 81%
    07:00 +3°C° 0 mm 2 mps 717 mmHg 82%
    08:00 +3°C° 0 mm 3 mps 717 mmHg 79%
    09:00 +4°C° 0 mm 3 mps 717 mmHg 77%
    10:00 +7°C° 0 mm 3 mps 717 mmHg 74%
    11:00 +7°C° 0 mm 3 mps 717 mmHg 73%
    12:00 +8°C° 0 mm 3 mps 717 mmHg 72%
    13:00 +9°C° 0 mm 3 mps 717 mmHg 71%
    14:00 +8°C° 0 mm 3 mps 717 mmHg 75%
    15:00 +7°C° 0 mm 3 mps 716 mmHg 79%
    16:00 +4°C° 0 mm 3 mps 716 mmHg 83%
    17:00 +4°C° 0 mm 3 mps 716 mmHg 84%
    18:00 +4°C° 0 mm 4 mps 716 mmHg 85%
    19:00 +3°C° 0 mm 4 mps 716 mmHg 85%
    20:00 +3°C° 0 mm 4 mps 717 mmHg 86%
    21:00 +3°C° 0 mm 4 mps 717 mmHg 86%
    22:00 +3°C° 0 mm 4 mps 717 mmHg 87%
    23:00 +3°C° 0 mm 4 mps 717 mmHg 86%

    25 November, Saturday

    Time Temperature Precipitation Wind Pressure Humidity
    00:00 +3°C° 0 mm 4 mps 717 mmHg 86%
    01:00 +3°C° 0 mm 4 mps 717 mmHg 85%
    02:00 +3°C° 0 mm 4 mps 717 mmHg 85%
    03:00 +3°C° 0 mm 4 mps 717 mmHg 85%
    04:00 +3°C° 0 mm 4 mps 717 mmHg 85%
    05:00 +3°C° 0 mm 4 mps 716 mmHg 85%
    06:00 +3°C° 0 mm 4 mps 716 mmHg 85%
    07:00 +3°C° 0 mm 4 mps 716 mmHg 85%
    08:00 +3°C° 0 mm 5 mps 716 mmHg 83%
    09:00 +3°C° 0 mm 5 mps 716 mmHg 80%
    10:00 +4°C° 0 mm 6 mps 715 mmHg 78%
    11:00 +5°C° 0 mm 6 mps 715 mmHg 77%
    12:00 +5°C° 0 mm 6 mps 714 mmHg 75%
    13:00 +6°C° 0 mm 7 mps 714 mmHg 74%
    14:00 +5°C° 0 mm 6 mps 713 mmHg 76%
    15:00 +4°C° 0 mm 6 mps 713 mmHg 79%
    16:00 +4°C° 0 mm 6 mps 712 mmHg 81%
    17:00 +4°C° 0 mm 6 mps 712 mmHg 82%
    18:00 +4°C° 0 mm 6 mps 712 mmHg 82%
    19:00 +4°C° 0 mm 6 mps 712 mmHg 83%
    20:00 +4°C° 0 mm 6 mps 712 mmHg 83%
    21:00 +5°C° 0 mm 5 mps 713 mmHg 83%
    22:00 +5°C° 0 mm 5 mps 713 mmHg 84%
    23:00 +5°C° 0 mm 5 mps 714 mmHg 82%

    26 November, Sunday

    Time Temperature Precipitation Wind Pressure Humidity
    00:00 +3°C° 0 mm 5 mps 714 mmHg 81%
    01:00 +3°C° 0 mm 5 mps 715 mmHg 79%
    02:00 +3°C° 0 mm 5 mps 715 mmHg 78%
    03:00 +2°C° 0 mm 5 mps 716 mmHg 76%
    04:00 +2°C° 0 mm 5 mps 716 mmHg 74%
    05:00 +1°C° 0 mm 5 mps 717 mmHg 75%
    06:00 +1°C° 0 mm 5 mps 717 mmHg 75%
    07:00 +1°C° 0 mm 4 mps 717 mmHg 75%
    08:00 +1°C° 0 mm 5 mps 718 mmHg 73%
    09:00 +1°C° 0 mm 6 mps 718 mmHg 71%
    10:00 +2°C° 0 mm 6 mps 718 mmHg 69%
    11:00 +2°C° 0 mm 6 mps 719 mmHg 66%
    12:00 +2°C° 0 mm 6 mps 719 mmHg 63%
    13:00 +2°C° 0 mm 6 mps 719 mmHg 60%
    14:00 +2°C° 0 mm 5 mps 719 mmHg 61%
    15:00 +1°C° 0 mm 4 mps 720 mmHg 63%
    16:00 0°C° 0 mm 4 mps 720 mmHg 64%
    17:00 -1°C° 0 mm 4 mps 720 mmHg 67%
    18:00 -1°C° 0 mm 4 mps 720 mmHg 69%
    19:00 -2°C° 0 mm 4 mps 721 mmHg 71%
    20:00 -2°C° 0 mm 4 mps 721 mmHg 72%
    21:00 -3°C° 0 mm 4 mps 722 mmHg 74%
    22:00 -3°C° 0 mm 4 mps 722 mmHg 75%
    23:00 -3°C° 0 mm 4 mps 722 mmHg 76%
    Show more